Location: Bli��� Lhota
(48.7570°N, 14.0120°E)
Time: 06:05:24
(UTC+00:00)

Cosmos 1437 - Pass Details

Date: 18 September 2020
Orbit: 366 x 369 km, 81.2° (Epoch: 22 October)

Event Time Altitude Azimuth Distance (km) Brightness Sun altitude
Rises 18:09:31 0° 344° (NNW) 2,255 6.9 -10.6°
Reaches altitude 10° 18:11:32 10° 339° (NNW) 1,398 5.9 -10.9°
Maximum altitude 18:14:30 52° 262° (W) 477 3.4 -11.4°
Drops below altitude 10° 18:17:26 10° 185° (S) 1,384 5.3 -11.8°
Sets 18:19:25 0° 180° (S) 2,229 6.3 -12.1°
